FLOCK 4H-36 (66739 NORAD) Tracking and Keplerian Element Data

This shows tracking and keplerian element data for the satellite.

Feedback or suggestion? Click here.




ElementValue
Catalog66739
NameFLOCK 4H-36
Epoch Orbit325
Epoch Day354.18246606
Epoch Year2025
RAAN65.8486
Inclination97.4461
Eccentricity0.0002168
Argument of Perigee192.7906
Mean Anonmoly167.3274
Mean Motion15.17959724
Decay Rate4.814E-05
L11 66739U 25276CB 25354.18246606 .00004814 00000+0 24034-3 0 9997
L22 66739 97.4461 65.8486 0002168 192.7906 167.3274 15.17959724 3252



Live tracking and technical data element details for FLOCK 4H-36 (NORAD 66739). FLOCK 4H-36 can be tracked NOW for your location showing map with azimuth and elevation plus other details from your city location.







IsCatalogInMostPopularTable: catalog: 66739, numindb: 24
Update: records affected: 1



GetName: 66739 FLOCK 4H-36

Hit Count: updated at: Mon, 20 Apr 2026 09:08:31 GMT